Time,TemperatureF,DewpointF,PressureIn,WindDirection,WindDirectionDegrees,WindSpeedMPH,WindSpeedGustMPH,Humidity,HourlyPrecipIn,Conditions,Clouds,dailyrainin,SoftwareType,DateUTC
2013-11-26 11:59:00,41.5,4.5,25.25,ESE,104,5.8,7.6,21,0.12,,---,0.00,VWS V14.01,2013-11-26 17:59:00,
2013-11-26 12:00:00,41.7,4.7,25.25,NE,45,5.8,12.8,21,0.00,,---,0.00,VWS V14.01,2013-11-26 18:00:00,
2013-11-26 12:01:00,41.7,4.7,25.25,ENE,58,7.6,8.7,21,0.00,,---,0.00,VWS V14.01,2013-11-26 18:01:00,
2013-11-26 12:05:00,41.9,4.8,25.25,ENE,77,12.8,12.8,21,0.00,,---,0.00,VWS V14.01,2013-11-26 18:05:00,
2013-11-26 12:07:00,41.7,4.7,25.25,ENE,57,10.1,10.5,21,0.00,,---,0.00,VWS V14.01,2013-11-26 18:07:00,
2013-11-26 12:08:00,41.7,4.7,25.25,East,91,13.6,13.6,21,0.00,,---,0.00,VWS V14.01,2013-11-26 18:08:00,
2013-11-26 12:09:00,41.7,4.7,25.25,East,89,10.1,13.6,21,0.00,,---,0.00,VWS V14.01,2013-11-26 18:09:00,
2013-11-26 12:12:00,41.5,4.5,25.25,ESE,106,11.0,11.0,21,0.00,,---,0.00,VWS V14.01,2013-11-26 18:12:00,
2013-11-26 12:13:00,41.5,4.5,25.25,East,83,7.6,11.0,21,0.00,,---,0.00,VWS V14.01,2013-11-26 18:13:00,
2013-11-26 12:14:00,41.4,4.4,25.25,East,82,5.4,8.7,21,0.00,,---,0.00,VWS V14.01,2013-11-26 18:14:00,
2013-11-26 12:18:00,41.5,4.5,25.25,East,99,5.4,10.1,21,0.00,,---,0.00,VWS V14.01,2013-11-26 18:18:00,
2013-11-26 12:19:00,41.5,4.5,25.25,East,88,4.0,7.6,21,0.00,,---,0.00,VWS V14.01,2013-11-26 18:19:00,
2013-11-26 12:21:00,41.5,4.5,25.25,East,92,8.1,8.1,21,0.00,,---,0.00,VWS V14.01,2013-11-26 18:21:00,
2013-11-26 12:22:00,41.7,4.7,25.25,East,85,11.0,11.0,21,0.00,,---,0.00,VWS V14.01,2013-11-26 18:22:00,
2013-11-26 12:24:00,41.7,4.7,25.25,ESE,103,8.3,8.7,21,0.00,,---,0.00,VWS V14.01,2013-11-26 18:24:00,
2013-11-26 12:26:00,41.7,4.7,25.25,East,99,6.3,8.7,21,0.00,,---,0.00,VWS V14.01,2013-11-26 18:26:00,
2013-11-26 12:28:00,41.9,4.8,25.25,East,100,8.3,12.8,21,0.00,,---,0.00,VWS V14.01,2013-11-26 18:28:00,
2013-11-26 12:29:00,41.9,4.8,25.25,ESE,105,8.7,11.4,21,0.00,,---,0.00,VWS V14.01,2013-11-26 18:29:00,
2013-11-26 12:30:00,42.1,5.0,25.25,ENE,69,8.7,10.5,21,0.00,,---,0.00,VWS V14.01,2013-11-26 18:30:00,
2013-11-26 12:32:00,42.1,5.0,25.25,ENE,58,10.5,12.8,21,0.00,,---,0.00,VWS V14.01,2013-11-26 18:32:00,
2013-11-26 12:35:00,41.9,4.8,25.25,ENE,59,8.3,17.0,21,0.00,,---,0.00,VWS V14.01,2013-11-26 18:35:00,
2013-11-26 12:36:00,41.9,4.8,25.25,ENE,58,5.4,11.0,21,0.00,,---,0.00,VWS V14.01,2013-11-26 18:36:00,
2013-11-26 12:37:00,41.9,4.8,25.25,NE,40,11.0,11.0,21,0.00,,---,0.00,VWS V14.01,2013-11-26 18:37:00,
2013-11-26 12:39:00,41.9,4.8,25.25,NNE,33,5.4,10.1,21,0.00,,---,0.00,VWS V14.01,2013-11-26 18:39:00,
2013-11-26 12:41:00,41.7,4.7,25.25,ENE,73,10.5,10.5,21,0.00,,---,0.00,VWS V14.01,2013-11-26 18:41:00,
2013-11-26 12:43:00,41.7,4.7,25.25,ENE,70,8.7,8.7,21,0.00,,---,0.00,VWS V14.01,2013-11-26 18:43:00,
2013-11-26 12:44:00,41.7,4.7,25.25,NE,37,8.3,11.0,21,0.00,,---,0.00,VWS V14.01,2013-11-26 18:44:00,
2013-11-26 12:46:00,41.5,4.5,25.25,East,83,8.3,12.3,21,0.00,,---,0.00,VWS V14.01,2013-11-26 18:46:00,
2013-11-26 12:48:00,41.5,4.5,25.25,NE,44,5.8,8.1,21,0.00,,---,0.00,VWS V14.01,2013-11-26 18:48:00,
2013-11-26 12:49:00,41.5,4.5,25.25,East,84,5.8,8.1,21,0.00,,---,0.00,VWS V14.01,2013-11-26 18:49:00,
2013-11-26 12:50:00,41.5,4.5,25.25,ESE,113,4.0,10.5,21,0.00,,---,0.00,VWS V14.01,2013-11-26 18:50:00,
2013-11-26 12:53:00,41.7,4.7,25.25,East,87,8.3,8.3,21,0.00,,---,0.00,VWS V14.01,2013-11-26 18:53:00,
2013-11-26 12:55:00,41.7,4.7,25.25,NE,49,7.6,10.5,21,0.00,,---,0.00,VWS V14.01,2013-11-26 18:55:00,
2013-11-26 12:57:00,41.5,4.5,25.25,NE,51,5.8,11.0,21,0.00,,---,0.00,VWS V14.01,2013-11-26 18:57:00,
2013-11-26 12:58:00,41.5,4.5,25.25,NNE,32,4.0,6.3,21,0.00,,---,0.00,VWS V14.01,2013-11-26 18:58:00,
2013-11-26 12:59:00,41.5,4.5,25.25,East,86,5.8,7.6,21,0.00,,---,0.00,VWS V14.01,2013-11-26 18:59:00,
2013-11-26 13:01:00,41.5,4.5,25.25,East,79,4.9,5.4,21,0.00,,---,0.00,VWS V14.01,2013-11-26 19:01:00,
2013-11-26 13:05:00,42.1,5.0,25.25,East,97,5.8,8.3,21,0.00,,---,0.00,VWS V14.01,2013-11-26 19:05:00,
2013-11-26 13:07:00,42.3,5.1,25.25,East,83,6.3,8.3,21,0.00,,---,0.00,VWS V14.01,2013-11-26 19:07:00,
2013-11-26 13:08:00,42.3,5.1,25.25,NE,55,8.1,8.7,21,0.00,,---,0.00,VWS V14.01,2013-11-26 19:08:00,
2013-11-26 13:09:00,42.4,5.3,25.25,East,89,6.3,8.1,21,0.00,,---,0.00,VWS V14.01,2013-11-26 19:09:00,
2013-11-26 13:12:00,42.4,5.3,25.25,NE,51,8.7,8.7,21,0.00,,---,0.00,VWS V14.01,2013-11-26 19:12:00,
2013-11-26 13:13:00,42.4,5.3,25.25,NNE,26,7.6,10.5,21,0.00,,---,0.00,VWS V14.01,2013-11-26 19:13:00,
2013-11-26 13:14:00,42.4,5.3,25.25,ENE,75,8.3,8.3,21,0.00,,---,0.00,VWS V14.01,2013-11-26 19:14:00,
2013-11-26 13:18:00,42.1,5.0,25.25,ESE,103,3.1,3.6,21,0.00,,---,0.00,VWS V14.01,2013-11-26 19:18:00,
2013-11-26 13:19:00,42.1,5.0,25.25,SE,128,3.1,5.8,21,0.00,,---,0.00,VWS V14.01,2013-11-26 19:19:00,
2013-11-26 13:20:00,42.1,5.0,25.25,ESE,117,4.0,5.8,21,0.00,,---,0.00,VWS V14.01,2013-11-26 19:20:00,
2013-11-26 13:22:00,42.1,5.0,25.25,East,95,4.9,6.3,21,0.00,,---,0.00,VWS V14.01,2013-11-26 19:22:00,
2013-11-26 13:25:00,42.1,5.0,25.25,ENE,64,8.1,8.7,21,0.00,,---,0.00,VWS V14.01,2013-11-26 19:25:00,
2013-11-26 13:26:00,42.1,5.0,25.25,NE,55,8.7,8.7,21,0.00,,---,0.00,VWS V14.01,2013-11-26 19:26:00,
2013-11-26 13:27:00,42.1,5.0,25.25,ENE,69,5.8,8.7,21,0.00,,---,0.00,VWS V14.01,2013-11-26 19:27:00,
2013-11-26 13:28:00,42.1,5.0,25.25,NE,56,6.3,10.1,21,0.00,,---,0.00,VWS V14.01,2013-11-26 19:28:00,
2013-11-26 13:31:00,42.1,5.0,25.25,East,92,7.2,13.2,21,0.00,,---,0.00,VWS V14.01,2013-11-26 19:31:00,
2013-11-26 13:32:00,42.1,5.0,25.25,East,87,8.3,9.2,21,0.00,,---,0.00,VWS V14.01,2013-11-26 19:32:00,
2013-11-26 13:34:00,42.1,5.0,25.25,ENE,68,8.7,13.2,21,0.00,,---,0.00,VWS V14.01,2013-11-26 19:34:00,
2013-11-26 13:35:00,42.1,5.0,25.25,ENE,74,5.4,8.7,21,0.00,,---,0.00,VWS V14.01,2013-11-26 19:35:00,
2013-11-26 13:36:00,42.1,5.0,25.25,ENE,76,14.5,14.5,21,0.00,,---,0.00,VWS V14.01,2013-11-26 19:36:00,
2013-11-26 13:39:00,42.1,5.0,25.25,East,99,8.1,8.1,21,0.00,,---,0.00,VWS V14.01,2013-11-26 19:39:00,
2013-11-26 13:40:00,42.1,5.0,25.25,NE,48,6.3,8.3,21,0.00,,---,0.00,VWS V14.01,2013-11-26 19:40:00,
2013-11-26 13:41:00,42.1,5.0,25.25,NE,46,11.0,11.0,21,0.00,,---,0.00,VWS V14.01,2013-11-26 19:41:00,
2013-11-26 13:43:00,42.1,5.0,25.25,ENE,69,3.6,5.4,21,0.00,,---,0.00,VWS V14.01,2013-11-26 19:43:00,
2013-11-26 13:45:00,42.1,5.0,25.25,East,82,8.1,12.3,21,0.00,,---,0.00,VWS V14.01,2013-11-26 19:45:00,
2013-11-26 14:36:00,43.0,4.7,25.25,ENE,68,5.4,5.4,20,0.00,,---,0.00,VWS V14.01,2013-11-26 20:36:00,
2013-11-26 14:37:00,43.0,4.7,25.25,NE,46,2.7,5.4,20,0.00,,---,0.00,VWS V14.01,2013-11-26 20:37:00,
2013-11-26 14:38:00,43.0,4.7,25.25,East,98,3.1,4.0,20,0.00,,---,0.00,VWS V14.01,2013-11-26 20:38:00,
2013-11-26 14:41:00,43.2,4.8,25.25,East,97,5.8,7.6,20,0.00,,---,0.00,VWS V14.01,2013-11-26 20:41:00,
2013-11-26 14:42:00,43.3,5.0,25.25,ENE,74,5.8,5.8,20,0.00,,---,0.00,VWS V14.01,2013-11-26 20:42:00,
2013-11-26 14:43:00,43.3,5.0,25.25,East,80,8.1,8.1,20,0.00,,---,0.00,VWS V14.01,2013-11-26 20:43:00,
2013-11-26 14:45:00,43.3,5.0,25.25,NE,41,2.7,5.4,20,0.00,,---,0.00,VWS V14.01,2013-11-26 20:45:00,
2013-11-26 14:49:00,43.5,5.1,25.22,ENE,78,3.1,4.0,20,0.00,,---,0.00,VWS V14.01,2013-11-26 20:49:00,
2013-11-26 14:50:00,43.5,5.1,25.22,WSW,238,3.1,5.4,20,0.00,,---,0.00,VWS V14.01,2013-11-26 20:50:00,
2013-11-26 14:51:00,43.5,5.1,25.22,ESE,119,6.3,6.3,20,0.00,,---,0.00,VWS V14.01,2013-11-26 20:51:00,
2013-11-26 14:54:00,43.5,5.1,25.22,ENE,69,5.4,6.3,20,0.00,,---,0.00,VWS V14.01,2013-11-26 20:54:00,
2013-11-26 14:57:00,43.5,5.1,25.22,ESE,104,4.0,7.6,20,0.00,,---,0.00,VWS V14.01,2013-11-26 20:57:00,
2013-11-26 14:58:00,43.5,5.1,25.22,ENE,73,10.5,10.5,20,0.00,,---,0.00,VWS V14.01,2013-11-26 20:58:00,
2013-11-26 14:59:00,43.3,5.0,25.22,NE,50,5.8,10.5,20,0.00,,---,0.00,VWS V14.01,2013-11-26 20:59:00,
2013-11-26 15:02:00,43.2,4.8,25.22,SSE,151,7.6,7.6,20,0.00,,---,0.00,VWS V14.01,2013-11-26 21:02:00,
2013-11-26 15:03:00,43.2,4.8,25.22,NNW,329,4.9,7.6,20,0.00,,---,0.00,VWS V14.01,2013-11-26 21:03:00,
2013-11-26 15:04:00,43.2,4.8,25.22,NNE,29,5.8,5.8,20,0.00,,---,0.00,VWS V14.01,2013-11-26 21:04:00,
2013-11-26 15:05:00,43.2,4.8,25.22,East,90,2.7,6.3,20,0.00,,---,0.00,VWS V14.01,2013-11-26 21:05:00,
2013-11-26 15:08:00,43.0,4.7,25.22,ENE,77,3.6,5.4,20,0.00,,---,0.00,VWS V14.01,2013-11-26 21:08:00,
2013-11-26 15:09:00,43.0,4.7,25.22,ENE,73,4.0,4.0,20,0.00,,---,0.00,VWS V14.01,2013-11-26 21:09:00,
2013-11-26 15:10:00,43.0,4.7,25.22,NE,50,2.7,8.1,20,0.00,,---,0.00,VWS V14.01,2013-11-26 21:10:00,
2013-11-26 15:11:00,43.0,4.7,25.22,NE,39,4.0,4.0,20,0.00,,---,0.00,VWS V14.01,2013-11-26 21:11:00,
2013-11-26 15:15:00,43.2,4.8,25.22,ENE,61,7.2,7.2,20,0.00,,---,0.00,VWS V14.01,2013-11-26 21:15:00,
2013-11-26 15:16:00,43.0,4.7,25.22,NE,55,5.8,8.1,20,0.00,,---,0.00,VWS V14.01,2013-11-26 21:16:00,
2013-11-26 15:18:00,43.0,4.7,25.22,NNE,24,6.3,7.2,20,0.00,,---,0.00,VWS V14.01,2013-11-26 21:18:00,
2013-11-26 15:19:00,42.8,4.5,25.22,NNE,31,3.6,6.3,20,0.00,,---,0.00,VWS V14.01,2013-11-26 21:19:00,
2013-11-26 15:20:00,42.8,4.5,25.22,East,79,8.1,8.1,20,0.00,,---,0.00,VWS V14.01,2013-11-26 21:20:00,
2013-11-26 15:22:00,42.8,4.5,25.22,ENE,69,5.8,8.7,20,0.00,,---,0.00,VWS V14.01,2013-11-26 21:22:00,
2013-11-26 15:24:00,42.8,4.5,25.22,East,87,5.8,6.3,20,0.00,,---,0.00,VWS V14.01,2013-11-26 21:24:00,
2013-11-26 15:25:00,42.6,5.4,25.22,NE,51,5.4,8.7,21,0.00,,---,0.00,VWS V14.01,2013-11-26 21:25:00,
2013-11-26 15:26:00,42.6,5.4,25.22,NE,46,8.1,8.1,21,0.00,,---,0.00,VWS V14.01,2013-11-26 21:26:00,
2013-11-26 15:30:00,42.4,5.3,25.22,ENE,76,5.8,10.5,21,0.00,,---,0.00,VWS V14.01,2013-11-26 21:30:00,
2013-11-26 15:31:00,42.4,5.3,25.22,East,85,10.1,10.1,21,0.00,,---,0.00,VWS V14.01,2013-11-26 21:31:00,
2013-11-26 15:33:00,42.4,5.3,25.22,ENE,57,8.1,8.1,21,0.00,,---,0.00,VWS V14.01,2013-11-26 21:33:00,
2013-11-26 15:36:00,42.4,5.3,25.22,East,95,4.0,6.3,21,0.00,,---,0.00,VWS V14.01,2013-11-26 21:36:00,
2013-11-26 15:38:00,42.4,5.3,25.22,ENE,76,10.5,10.5,21,0.00,,---,0.00,VWS V14.01,2013-11-26 21:38:00,
2013-11-26 15:39:00,42.4,5.3,25.22,ESE,108,5.8,10.5,21,0.00,,---,0.00,VWS V14.01,2013-11-26 21:39:00,
2013-11-26 15:41:00,42.4,5.3,25.22,East,81,10.5,10.5,21,0.00,,---,0.00,VWS V14.01,2013-11-26 21:41:00,
2013-11-26 15:42:00,42.4,5.3,25.22,ENE,71,6.3,10.5,21,0.00,,---,0.00,VWS V14.01,2013-11-26 21:42:00,
2013-11-26 15:43:00,42.4,5.3,25.22,East,85,5.4,8.1,21,0.00,,---,0.00,VWS V14.01,2013-11-26 21:43:00,
2013-11-26 15:44:00,42.4,5.3,25.22,East,80,8.3,8.3,21,0.00,,---,0.00,VWS V14.01,2013-11-26 21:44:00,
2013-11-26 15:45:00,42.3,5.1,25.22,East,82,7.6,10.1,21,0.00,,---,0.00,VWS V14.01,2013-11-26 21:45:00,
2013-11-26 15:46:00,42.3,5.1,25.22,East,85,8.1,9.2,21,0.00,,---,0.00,VWS V14.01,2013-11-26 21:46:00,
2013-11-26 15:48:00,42.3,5.1,25.22,East,99,10.5,10.5,21,0.00,,---,0.00,VWS V14.01,2013-11-26 21:48:00,
2013-11-26 15:50:00,42.3,5.1,25.22,East,97,9.2,9.2,21,0.00,,---,0.00,VWS V14.01,2013-11-26 21:50:00,
2013-11-26 15:51:00,42.3,5.1,25.22,East,79,5.8,9.2,21,0.00,,---,0.00,VWS V14.01,2013-11-26 21:51:00,
2013-11-26 15:53:00,42.3,5.1,25.22,NNE,33,5.8,8.7,21,0.00,,---,0.00,VWS V14.01,2013-11-26 21:53:00,
2013-11-26 15:54:00,42.3,5.1,25.22,NE,37,8.3,8.7,21,0.00,,---,0.00,VWS V14.01,2013-11-26 21:54:00,
2013-11-26 15:55:00,42.1,5.0,25.22,East,89,5.8,8.3,21,0.00,,---,0.00,VWS V14.01,2013-11-26 21:55:00,
2013-11-26 16:00:00,42.1,5.0,25.22,ENE,75,5.4,8.1,21,0.00,,---,0.00,VWS V14.01,2013-11-26 22:00:00,
2013-11-26 16:01:00,42.1,5.0,25.25,ESE,106,6.7,6.7,21,0.00,,---,0.00,VWS V14.01,2013-11-26 22:01:00,
2013-11-26 16:02:00,42.1,5.0,25.25,East,100,8.1,8.1,21,0.00,,---,0.00,VWS V14.01,2013-11-26 22:02:00,
2013-11-26 16:03:00,42.1,5.0,25.25,ENE,78,6.3,9.6,21,0.00,,---,0.00,VWS V14.01,2013-11-26 22:03:00,
2013-11-26 16:04:00,42.1,5.0,25.25,East,82,5.4,7.2,21,0.00,,---,0.00,VWS V14.01,2013-11-26 22:04:00,
2013-11-26 16:08:00,42.1,5.0,25.25,East,81,5.4,8.7,21,0.00,,---,0.00,VWS V14.01,2013-11-26 22:08:00,
2013-11-26 16:10:00,42.1,5.0,25.25,East,90,5.4,8.1,21,0.00,,---,0.00,VWS V14.01,2013-11-26 22:10:00,
2013-11-26 16:12:00,42.1,5.0,25.25,East,91,8.3,8.7,21,0.00,,---,0.00,VWS V14.01,2013-11-26 22:12:00,
2013-11-26 16:14:00,42.1,5.0,25.25,East,94,7.6,10.5,21,0.00,,---,0.00,VWS V14.01,2013-11-26 22:14:00,
2013-11-26 16:15:00,42.1,5.0,25.25,East,84,5.8,10.1,21,0.00,,---,0.00,VWS V14.01,2013-11-26 22:15:00,
2013-11-26 16:17:00,42.1,5.0,25.25,East,88,6.3,6.7,21,0.00,,---,0.00,VWS V14.01,2013-11-26 22:17:00,
2013-11-26 16:19:00,42.1,5.0,25.25,East,83,5.4,5.4,21,0.00,,---,0.00,VWS V14.01,2013-11-26 22:19:00,
2013-11-26 16:20:00,42.1,5.0,25.25,ENE,73,8.3,8.3,21,0.00,,---,0.00,VWS V14.01,2013-11-26 22:20:00,
2013-11-26 16:21:00,42.1,5.0,25.25,East,84,7.6,8.3,21,0.00,,---,0.00,VWS V14.01,2013-11-26 22:21:00,
2013-11-26 16:23:00,42.1,5.0,25.25,East,100,6.3,8.7,21,0.00,,---,0.00,VWS V14.01,2013-11-26 22:23:00,
2013-11-26 16:25:00,42.1,5.0,25.25,East,83,9.2,9.2,21,0.00,,---,0.00,VWS V14.01,2013-11-26 22:25:00,
2013-11-26 16:26:00,42.1,5.0,25.25,ESE,106,4.9,9.2,21,0.00,,---,0.00,VWS V14.01,2013-11-26 22:26:00,
2013-11-26 16:29:00,41.9,4.8,25.25,East,83,10.1,10.1,21,0.00,,---,0.00,VWS V14.01,2013-11-26 22:29:00,
2013-11-26 16:31:00,41.9,4.8,25.22,East,81,8.1,10.1,21,0.00,,---,0.00,VWS V14.01,2013-11-26 22:31:00,
2013-11-26 16:32:00,41.9,4.8,25.22,East,98,7.6,8.3,21,0.00,,---,0.00,VWS V14.01,2013-11-26 22:32:00,
2013-11-26 16:33:00,41.9,4.8,25.22,East,86,8.3,10.5,21,0.00,,---,0.00,VWS V14.01,2013-11-26 22:33:00,
2013-11-26 16:35:00,41.7,4.7,25.22,East,88,8.1,8.3,21,0.00,,---,0.00,VWS V14.01,2013-11-26 22:35:00,
2013-11-26 16:36:00,41.7,4.7,25.22,East,85,5.4,8.3,21,0.00,,---,0.00,VWS V14.01,2013-11-26 22:36:00,
2013-11-26 16:38:00,41.5,4.5,25.22,East,100,8.1,8.3,21,0.00,,---,0.00,VWS V14.01,2013-11-26 22:38:00,
2013-11-26 16:40:00,41.5,4.5,25.22,East,80,4.0,6.3,21,0.00,,---,0.00,VWS V14.01,2013-11-26 22:40:00,
2013-11-26 16:42:00,41.5,4.5,25.22,East,92,4.0,6.3,21,0.00,,---,0.00,VWS V14.01,2013-11-26 22:42:00,
2013-11-26 16:44:00,41.5,4.5,25.22,East,80,8.1,8.1,21,0.00,,---,0.00,VWS V14.01,2013-11-26 22:44:00,
2013-11-26 16:46:00,41.4,4.4,25.25,East,92,5.8,5.8,21,0.00,,---,0.00,VWS V14.01,2013-11-26 22:46:00,
2013-11-26 16:47:00,41.4,4.4,25.25,East,87,4.0,5.8,21,0.00,,---,0.00,VWS V14.01,2013-11-26 22:47:00,
2013-11-26 16:51:00,41.2,4.2,25.25,East,83,6.3,7.6,21,0.00,,---,0.00,VWS V14.01,2013-11-26 22:51:00,
2013-11-26 16:53:00,41.2,4.2,25.25,ENE,72,5.8,9.2,21,0.00,,---,0.00,VWS V14.01,2013-11-26 22:53:00,
2013-11-26 16:54:00,41.2,4.2,25.25,ENE,70,6.3,8.7,21,0.00,,---,0.00,VWS V14.01,2013-11-26 22:54:00,
2013-11-26 16:57:00,41.0,4.1,25.25,ENE,78,3.1,5.8,21,0.00,,---,0.00,VWS V14.01,2013-11-26 22:57:00,
2013-11-26 16:58:00,41.0,4.1,25.25,ENE,70,5.8,5.8,21,0.00,,---,0.00,VWS V14.01,2013-11-26 22:58:00,
2013-11-26 17:01:00,40.8,3.9,25.25,ENE,70,4.9,6.3,21,0.00,,---,0.00,VWS V14.01,2013-11-26 23:01:00,
2013-11-26 17:03:00,40.6,3.8,25.25,East,95,5.4,5.8,21,0.00,,---,0.00,VWS V14.01,2013-11-26 23:03:00,
2013-11-26 17:04:00,40.6,3.8,25.25,East,84,6.3,6.3,21,0.00,,---,0.00,VWS V14.01,2013-11-26 23:04:00,
2013-11-26 17:05:00,40.5,3.6,25.25,ENE,76,4.0,6.3,21,0.00,,---,0.00,VWS V14.01,2013-11-26 23:05:00,
2013-11-26 17:06:00,40.5,3.6,25.25,ENE,77,4.9,5.8,21,0.00,,---,0.00,VWS V14.01,2013-11-26 23:06:00,
2013-11-26 17:08:00,40.5,3.6,25.25,East,90,6.3,8.3,21,0.00,,---,0.00,VWS V14.01,2013-11-26 23:08:00,
2013-11-26 17:09:00,40.3,3.5,25.25,ENE,76,8.1,8.1,21,0.00,,---,0.00,VWS V14.01,2013-11-26 23:09:00,
2013-11-26 17:11:00,40.3,3.5,25.25,East,96,7.6,7.6,21,0.00,,---,0.00,VWS V14.01,2013-11-26 23:11:00,
2013-11-26 17:12:00,40.3,3.5,25.25,East,89,5.4,7.6,21,0.00,,---,0.00,VWS V14.01,2013-11-26 23:12:00,
2013-11-26 17:14:00,40.1,3.3,25.25,ENE,75,5.8,5.8,21,0.00,,---,0.00,VWS V14.01,2013-11-26 23:14:00,
2013-11-26 17:16:00,40.1,3.3,25.25,East,85,4.9,5.8,21,0.00,,---,0.00,VWS V14.01,2013-11-26 23:16:00,
2013-11-26 17:18:00,39.9,3.2,25.25,ENE,58,2.7,4.0,21,0.00,,---,0.00,VWS V14.01,2013-11-26 23:18:00,
2013-11-26 17:19:00,39.9,3.2,25.25,NNE,28,2.7,3.1,21,0.00,,---,0.00,VWS V14.01,2013-11-26 23:19:00,
2013-11-26 17:23:00,39.7,5.0,25.25,ENE,70,3.1,4.0,23,0.00,,---,0.00,VWS V14.01,2013-11-26 23:23:00,
2013-11-26 17:24:00,39.7,3.0,25.25,ENE,73,3.6,4.0,21,0.00,,---,0.00,VWS V14.01,2013-11-26 23:24:00,
2013-11-26 17:27:00,39.7,5.0,25.25,ENE,62,4.0,6.3,23,0.00,,---,0.00,VWS V14.01,2013-11-26 23:27:00,
2013-11-26 17:29:00,39.6,4.8,25.25,East,79,3.1,4.0,23,0.00,,---,0.00,VWS V14.01,2013-11-26 23:29:00,
2013-11-26 17:30:00,39.4,4.7,25.25,East,87,4.9,5.4,23,0.00,,---,0.00,VWS V14.01,2013-11-26 23:30:00,
2013-11-26 17:33:00,39.4,4.7,25.25,ENE,72,4.0,4.0,23,0.00,,---,0.00,VWS V14.01,2013-11-26 23:33:00,
2013-11-26 17:34:00,39.2,4.5,25.25,ENE,76,5.8,5.8,23,0.00,,---,0.00,VWS V14.01,2013-11-26 23:34:00,
2013-11-26 17:35:00,39.2,4.5,25.25,ENE,74,4.0,5.8,23,0.00,,---,0.00,VWS V14.01,2013-11-26 23:35:00,
2013-11-26 17:38:00,39.0,5.3,25.25,East,98,6.3,6.3,24,0.00,,---,0.00,VWS V14.01,2013-11-26 23:38:00,
2013-11-26 17:40:00,38.8,5.2,25.25,ENE,62,3.1,5.8,24,0.00,,---,0.00,VWS V14.01,2013-11-26 23:40:00,
2013-11-26 17:41:00,38.7,5.0,25.25,ENE,77,3.6,3.6,24,0.00,,---,0.00,VWS V14.01,2013-11-26 23:41:00,
2013-11-26 17:42:00,38.7,5.0,25.25,East,89,2.7,4.0,24,0.00,,---,0.00,VWS V14.01,2013-11-26 23:42:00,
2013-11-26 17:44:00,38.5,4.8,25.25,East,83,4.9,5.8,24,0.00,,---,0.00,VWS V14.01,2013-11-26 23:44:00,
2013-11-26 17:47:00,38.1,4.5,25.25,East,94,3.6,5.8,24,0.00,,---,0.00,VWS V14.01,2013-11-26 23:47:00,
2013-11-26 17:49:00,37.9,4.4,25.25,East,85,4.0,4.0,24,0.00,,---,0.00,VWS V14.01,2013-11-26 23:49:00,
2013-11-26 17:50:00,37.8,4.2,25.25,East,85,3.1,4.0,24,0.00,,---,0.00,VWS V14.01,2013-11-26 23:50:00,
2013-11-26 17:51:00,37.6,4.1,25.25,East,85,2.7,3.6,24,0.00,,---,0.00,VWS V14.01,2013-11-26 23:51:00,
2013-11-26 17:54:00,37.0,3.6,25.25,East,88,4.0,4.0,24,0.00,,---,0.00,VWS V14.01,2013-11-26 23:54:00,
2013-11-26 17:55:00,36.9,3.5,25.25,East,94,3.6,4.0,24,0.00,,---,0.00,VWS V14.01,2013-11-26 23:55:00,
2013-11-26 17:57:00,36.7,3.3,25.25,East,85,3.6,3.6,24,0.00,,---,0.00,VWS V14.01,2013-11-26 23:57:00,
2013-11-26 18:01:00,36.1,2.8,25.25,East,86,3.1,3.1,24,0.00,,---,0.00,VWS V14.01,2013-11-27 00:01:00,
2013-11-26 18:02:00,36.0,2.7,25.25,East,86,2.7,3.1,24,0.00,,---,0.00,VWS V14.01,2013-11-27 00:02:00,
2013-11-26 18:04:00,35.6,2.4,25.25,East,86,2.7,3.1,24,0.00,,---,0.00,VWS V14.01,2013-11-27 00:04:00,
2013-11-26 18:06:00,35.2,3.0,25.25,East,87,3.1,3.6,25,0.00,,---,0.00,VWS V14.01,2013-11-27 00:06:00,
2013-11-26 18:08:00,35.1,2.8,25.25,East,87,2.2,2.2,25,0.00,,---,0.00,VWS V14.01,2013-11-27 00:08:00,
2013-11-26 18:09:00,34.9,2.6,25.25,East,87,2.7,3.1,25,0.00,,---,0.00,VWS V14.01,2013-11-27 00:09:00,
2013-11-26 18:11:00,34.7,2.5,25.25,East,87,2.7,3.1,25,0.00,,---,0.00,VWS V14.01,2013-11-27 00:11:00,
2013-11-26 18:12:00,34.5,2.3,25.25,East,87,3.1,3.1,25,0.00,,---,0.00,VWS V14.01,2013-11-27 00:12:00,
2013-11-26 18:13:00,34.5,2.3,25.25,East,87,2.7,3.1,25,0.00,,---,0.00,VWS V14.01,2013-11-27 00:13:00,
2013-11-26 18:14:00,34.3,2.2,25.25,East,87,3.1,3.1,25,0.00,,---,0.00,VWS V14.01,2013-11-27 00:14:00,
2013-11-26 18:18:00,34.3,2.2,25.25,East,87,2.7,3.6,25,0.00,,---,0.00,VWS V14.01,2013-11-27 00:18:00,
2013-11-26 18:19:00,34.2,2.0,25.25,East,87,0.0,2.7,25,0.00,,---,0.00,VWS V14.01,2013-11-27 00:19:00,
2013-11-26 18:22:00,34.2,2.0,25.25,East,87,0.0,0.0,25,0.00,,---,0.00,VWS V14.01,2013-11-27 00:22:00,
2013-11-26 18:24:00,34.2,3.7,25.25,East,87,0.0,0.0,27,0.00,,---,0.00,VWS V14.01,2013-11-27 00:24:00,
2013-11-26 18:28:00,34.0,3.5,25.25,East,87,0.0,0.0,27,0.00,,---,0.00,VWS V14.01,2013-11-27 00:28:00,
2013-11-26 18:29:00,34.0,3.5,25.25,East,87,0.0,0.0,27,0.00,,---,0.00,VWS V14.01,2013-11-27 00:29:00,
2013-11-26 18:30:00,34.0,3.5,25.25,East,87,0.0,0.0,27,0.00,,---,0.00,VWS V14.01,2013-11-27 00:30:00,
2013-11-26 18:31:00,34.0,3.5,25.25,East,87,0.0,0.0,27,0.00,,---,0.00,VWS V14.01,2013-11-27 00:31:00,
2013-11-26 18:32:00,34.0,3.5,25.25,East,87,0.0,0.0,27,0.00,,---,0.00,VWS V14.01,2013-11-27 00:32:00,
2013-11-26 18:34:00,33.8,3.4,25.25,East,87,0.0,0.0,27,0.00,,---,0.00,VWS V14.01,2013-11-27 00:34:00,
2013-11-26 18:35:00,33.8,3.4,25.25,East,87,0.0,0.0,27,0.00,,---,0.00,VWS V14.01,2013-11-27 00:35:00,
2013-11-26 18:37:00,33.8,3.4,25.25,East,87,0.0,0.0,27,0.00,,---,0.00,VWS V14.01,2013-11-27 00:37:00,
2013-11-26 18:38:00,33.8,3.4,25.25,East,87,0.0,0.0,27,0.00,,---,0.00,VWS V14.01,2013-11-27 00:38:00,
2013-11-26 18:42:00,33.6,4.0,25.25,East,87,0.0,0.0,28,0.00,,---,0.00,VWS V14.01,2013-11-27 00:42:00,
2013-11-26 18:44:00,33.4,3.8,25.25,East,87,0.0,0.0,28,0.00,,---,0.00,VWS V14.01,2013-11-27 00:44:00,
2013-11-26 18:45:00,33.4,3.8,25.25,East,87,0.0,0.0,28,0.00,,---,0.00,VWS V14.01,2013-11-27 00:45:00,
2013-11-26 18:47:00,33.3,3.7,25.25,East,87,0.0,0.0,28,0.00,,---,0.00,VWS V14.01,2013-11-27 00:47:00,
2013-11-26 18:49:00,33.3,3.7,25.25,East,87,0.0,0.0,28,0.00,,---,0.00,VWS V14.01,2013-11-27 00:49:00,
2013-11-26 18:50:00,33.1,3.5,25.25,East,87,0.0,0.0,28,0.00,,---,0.00,VWS V14.01,2013-11-27 00:50:00,
2013-11-26 18:51:00,33.1,3.5,25.25,East,87,0.0,0.0,28,0.00,,---,0.00,VWS V14.01,2013-11-27 00:51:00,
2013-11-26 18:54:00,33.1,3.5,25.25,East,87,0.0,0.0,28,0.00,,---,0.00,VWS V14.01,2013-11-27 00:54:00,
2013-11-26 18:56:00,32.9,3.4,25.25,East,87,0.0,0.0,28,0.00,,---,0.00,VWS V14.01,2013-11-27 00:56:00,
2013-11-26 18:58:00,32.7,3.2,25.25,NNE,14,0.0,0.0,28,0.00,,---,0.00,VWS V14.01,2013-11-27 00:58:00,
2013-11-26 18:59:00,32.7,3.2,25.25,NNE,14,0.0,0.0,28,0.00,,---,0.00,VWS V14.01,2013-11-27 00:59:00,
2013-11-26 19:01:00,32.5,3.1,25.25,NNE,14,0.0,0.0,28,0.00,,---,0.00,VWS V14.01,2013-11-27 01:01:00,
2013-11-26 19:03:00,32.5,3.1,25.25,NNE,14,0.0,0.0,28,0.00,,---,0.00,VWS V14.01,2013-11-27 01:03:00,
2013-11-26 19:04:00,32.5,3.1,25.25,NNE,14,0.0,0.0,28,0.00,,---,0.00,VWS V14.01,2013-11-27 01:04:00,
2013-11-26 19:06:00,32.4,4.4,25.25,North,4,0.0,0.0,30,0.00,,---,0.00,VWS V14.01,2013-11-27 01:06:00,
2013-11-26 19:10:00,32.4,4.4,25.25,North,4,0.0,0.0,30,0.00,,---,0.00,VWS V14.01,2013-11-27 01:10:00,
2013-11-26 19:11:00,32.2,4.2,25.25,North,4,0.0,0.0,30,0.00,,---,0.00,VWS V14.01,2013-11-27 01:11:00,
2013-11-26 19:12:00,32.2,4.2,25.25,North,4,2.7,2.7,30,0.00,,---,0.00,VWS V14.01,2013-11-27 01:12:00,
2013-11-26 19:16:00,32.2,4.2,25.25,North,4,0.0,0.0,30,0.00,,---,0.00,VWS V14.01,2013-11-27 01:16:00,
2013-11-26 19:20:00,32.2,4.2,25.25,North,6,0.0,0.0,30,0.00,,---,0.00,VWS V14.01,2013-11-27 01:20:00,
2013-11-26 19:21:00,32.2,4.2,25.25,North,6,0.0,0.0,30,0.00,,---,0.00,VWS V14.01,2013-11-27 01:21:00,
2013-11-26 19:22:00,32.0,4.1,25.25,North,6,0.0,0.0,30,0.00,,---,0.00,VWS V14.01,2013-11-27 01:22:00,
2013-11-26 19:26:00,31.8,3.9,25.25,North,6,0.0,0.0,30,0.00,,---,0.00,VWS V14.01,2013-11-27 01:26:00,
2013-11-26 19:28:00,31.6,3.8,25.25,North,6,0.0,0.0,30,0.00,,---,0.00,VWS V14.01,2013-11-27 01:28:00,
2013-11-26 19:29:00,31.5,3.6,25.25,North,6,0.0,0.0,30,0.00,,---,0.00,VWS V14.01,2013-11-27 01:29:00,
2013-11-26 19:30:00,31.3,3.5,25.25,North,6,0.0,0.0,30,0.00,,---,0.00,VWS V14.01,2013-11-27 01:30:00,
2013-11-26 19:34:00,31.1,4.0,25.28,North,6,0.0,0.0,31,0.00,,---,0.00,VWS V14.01,2013-11-27 01:34:00,
2013-11-26 19:35:00,31.1,4.0,25.28,North,6,0.0,0.0,31,0.00,,---,0.00,VWS V14.01,2013-11-27 01:35:00,
2013-11-26 19:36:00,31.1,4.0,25.28,North,6,0.0,0.0,31,0.00,,---,0.00,VWS V14.01,2013-11-27 01:36:00,
2013-11-26 19:37:00,31.1,4.0,25.28,North,6,2.7,2.7,31,0.00,,---,0.00,VWS V14.01,2013-11-27 01:37:00,
2013-11-26 19:39:00,30.9,3.8,25.28,North,5,0.0,2.7,31,0.00,,---,0.00,VWS V14.01,2013-11-27 01:39:00,
2013-11-26 19:41:00,30.9,3.8,25.28,North,5,0.0,0.0,31,0.00,,---,0.00,VWS V14.01,2013-11-27 01:41:00,
2013-11-26 19:43:00,30.9,3.8,25.28,North,5,0.0,0.0,31,0.00,,---,0.00,VWS V14.01,2013-11-27 01:43:00,
2013-11-26 19:44:00,30.9,3.8,25.28,North,5,0.0,0.0,31,0.00,,---,0.00,VWS V14.01,2013-11-27 01:44:00,
2013-11-26 19:47:00,31.1,4.0,25.28,North,5,0.0,0.0,31,0.00,,---,0.00,VWS V14.01,2013-11-27 01:47:00,
2013-11-26 19:48:00,31.1,4.0,25.28,North,5,0.0,0.0,31,0.00,,---,0.00,VWS V14.01,2013-11-27 01:48:00,
2013-11-26 19:51:00,31.1,4.0,25.28,North,5,0.0,0.0,31,0.00,,---,0.00,VWS V14.01,2013-11-27 01:51:00,
2013-11-26 19:52:00,31.1,4.0,25.28,North,5,0.0,0.0,31,0.00,,---,0.00,VWS V14.01,2013-11-27 01:52:00,
2013-11-26 19:54:00,31.1,4.0,25.28,North,5,0.0,0.0,31,0.00,,---,0.00,VWS V14.01,2013-11-27 01:54:00,
2013-11-26 19:55:00,30.9,3.8,25.28,North,5,0.0,0.0,31,0.00,,---,0.00,VWS V14.01,2013-11-27 01:55:00,
2013-11-26 19:56:00,30.9,3.8,25.28,North,5,0.0,0.0,31,0.00,,---,0.00,VWS V14.01,2013-11-27 01:56:00,
2013-11-26 19:57:00,30.7,3.7,25.28,North,5,0.0,0.0,31,0.00,,---,0.00,VWS V14.01,2013-11-27 01:57:00,
2013-11-26 20:00:00,30.7,3.7,25.28,North,5,0.0,0.0,31,0.00,,---,0.00,VWS V14.01,2013-11-27 02:00:00,
2013-11-26 20:01:00,30.6,3.5,25.28,North,5,0.0,0.0,31,0.00,,---,0.00,VWS V14.01,2013-11-27 02:01:00,
2013-11-26 20:02:00,30.6,3.5,25.28,North,5,0.0,0.0,31,0.00,,---,0.00,VWS V14.01,2013-11-27 02:02:00,
2013-11-26 20:05:00,30.2,3.9,25.28,North,5,0.0,0.0,32,0.00,,---,0.00,VWS V14.01,2013-11-27 02:05:00,
2013-11-26 20:06:00,30.0,3.8,25.28,North,5,0.0,0.0,32,0.00,,---,0.00,VWS V14.01,2013-11-27 02:06:00,
2013-11-26 20:08:00,29.8,3.6,25.28,North,5,0.0,0.0,32,0.00,,---,0.00,VWS V14.01,2013-11-27 02:08:00,
2013-11-26 20:13:00,29.5,3.3,25.28,North,5,0.0,2.7,32,0.00,,---,0.00,VWS V14.01,2013-11-27 02:13:00,
2013-11-26 20:14:00,29.5,3.3,25.28,North,5,0.0,0.0,32,0.00,,---,0.00,VWS V14.01,2013-11-27 02:14:00,
2013-11-26 20:15:00,29.5,3.3,25.28,North,5,0.0,0.0,32,0.00,,---,0.00,VWS V14.01,2013-11-27 02:15:00,
2013-11-26 20:16:00,29.5,3.3,25.28,North,5,0.0,0.0,32,0.00,,---,0.00,VWS V14.01,2013-11-27 02:16:00,
2013-11-26 20:18:00,29.3,3.1,25.28,NNW,331,2.7,4.0,32,0.00,,---,0.00,VWS V14.01,2013-11-27 02:18:00,
2013-11-26 20:20:00,29.3,3.1,25.28,NNW,331,3.6,3.6,32,0.00,,---,0.00,VWS V14.01,2013-11-27 02:20:00,
2013-11-26 20:23:00,29.3,3.8,25.28,NNW,331,3.1,3.1,33,0.00,,---,0.00,VWS V14.01,2013-11-27 02:23:00,
2013-11-26 20:26:00,29.3,3.8,25.28,NNW,331,3.1,3.6,33,0.00,,---,0.00,VWS V14.01,2013-11-27 02:26:00,
2013-11-26 20:28:00,29.3,3.8,25.28,NNW,331,3.6,4.0,33,0.00,,---,0.00,VWS V14.01,2013-11-27 02:28:00,
2013-11-26 20:29:00,29.3,3.8,25.28,NNW,331,3.1,3.6,33,0.00,,---,0.00,VWS V14.01,2013-11-27 02:29:00,
2013-11-26 20:30:00,29.3,3.8,25.28,NNW,331,2.7,3.1,33,0.00,,---,0.00,VWS V14.01,2013-11-27 02:30:00,
2013-11-26 20:34:00,29.3,4.4,25.28,NNW,332,2.7,3.1,34,0.00,,---,0.00,VWS V14.01,2013-11-27 02:34:00,
2013-11-26 20:36:00,29.3,4.4,25.28,NNW,333,2.7,3.1,34,0.00,,---,0.00,VWS V14.01,2013-11-27 02:36:00,
2013-11-26 20:40:00,29.3,5.1,25.28,NNW,335,0.0,0.0,35,0.00,,---,0.00,VWS V14.01,2013-11-27 02:40:00,
2013-11-26 20:41:00,29.3,5.1,25.28,NNW,335,0.0,0.0,35,0.00,,---,0.00,VWS V14.01,2013-11-27 02:41:00,
2013-11-26 20:43:00,29.3,5.1,25.28,NNW,337,0.0,2.7,35,0.00,,---,0.00,VWS V14.01,2013-11-27 02:43:00,
2013-11-26 20:45:00,29.3,5.1,25.28,NNW,340,0.0,0.0,35,0.00,,---,0.00,VWS V14.01,2013-11-27 02:45:00,
2013-11-26 20:48:00,29.3,5.1,25.28,NNW,341,4.0,4.0,35,0.00,,---,0.00,VWS V14.01,2013-11-27 02:48:00,
2013-11-26 20:50:00,29.3,5.1,25.28,NNW,341,4.0,4.0,35,0.00,,---,0.00,VWS V14.01,2013-11-27 02:50:00,
2013-11-26 20:52:00,29.1,4.9,25.28,NNW,336,4.0,4.0,35,0.00,,---,0.00,VWS V14.01,2013-11-27 02:52:00,
2013-11-26 20:53:00,29.1,4.9,25.28,NNW,337,0.0,4.0,35,0.00,,---,0.00,VWS V14.01,2013-11-27 02:53:00,
2013-11-26 20:54:00,28.9,4.7,25.28,NNW,337,2.2,2.7,35,0.00,,---,0.00,VWS V14.01,2013-11-27 02:54:00,
2013-11-26 20:55:00,28.9,4.7,25.28,NNW,337,4.0,4.0,35,0.00,,---,0.00,VWS V14.01,2013-11-27 02:55:00,
2013-11-26 20:58:00,28.6,4.4,25.28,NNW,338,2.7,3.6,35,0.00,,---,0.00,VWS V14.01,2013-11-27 02:58:00,
2013-11-26 21:00:00,28.6,4.4,25.28,NNW,338,2.7,3.6,35,0.00,,---,0.00,VWS V14.01,2013-11-27 03:00:00,
2013-11-26 21:01:00,28.4,4.9,25.28,NNW,338,2.7,3.6,36,0.00,,---,0.00,VWS V14.01,2013-11-27 03:01:00,
2013-11-26 21:04:00,28.4,4.9,25.28,NNW,332,2.7,4.0,36,0.00,,---,0.00,VWS V14.01,2013-11-27 03:04:00,
2013-11-26 21:05:00,28.4,5.5,25.28,NNW,332,3.6,5.4,37,0.00,,---,0.00,VWS V14.01,2013-11-27 03:05:00,
2013-11-26 21:06:00,28.4,5.5,25.28,NNW,333,3.1,4.0,37,0.00,,---,0.00,VWS V14.01,2013-11-27 03:06:00,
2013-11-26 21:09:00,28.6,5.6,25.28,North,349,3.1,3.1,37,0.00,,---,0.00,VWS V14.01,2013-11-27 03:09:00,
2013-11-26 21:10:00,28.6,5.6,25.28,North,349,0.0,3.1,37,0.00,,---,0.00,VWS V14.01,2013-11-27 03:10:00,
2013-11-26 21:13:00,28.6,5.6,25.28,NNW,337,3.6,4.0,37,0.00,,---,0.00,VWS V14.01,2013-11-27 03:13:00,
2013-11-26 21:14:00,28.6,6.2,25.28,NNW,335,4.0,4.0,38,0.00,,---,0.00,VWS V14.01,2013-11-27 03:14:00,
2013-11-26 21:18:00,28.8,6.4,25.28,NNW,332,3.6,3.6,38,0.00,,---,0.00,VWS V14.01,2013-11-27 03:18:00,
2013-11-26 21:20:00,28.8,6.4,25.28,NNW,332,3.1,3.6,38,0.00,,---,0.00,VWS V14.01,2013-11-27 03:20:00,
2013-11-26 21:21:00,28.8,6.4,25.28,NNW,332,3.1,3.6,38,0.00,,---,0.00,VWS V14.01,2013-11-27 03:21:00,
2013-11-26 21:23:00,28.8,6.4,25.28,NNW,332,3.1,4.0,38,0.00,,---,0.00,VWS V14.01,2013-11-27 03:23:00,
2013-11-26 21:25:00,28.6,6.2,25.28,NNW,332,0.0,0.0,38,0.00,,---,0.00,VWS V14.01,2013-11-27 03:25:00,
2013-11-26 21:27:00,28.6,6.8,25.28,NNW,332,0.0,0.0,39,0.00,,---,0.00,VWS V14.01,2013-11-27 03:27:00,
2013-11-26 21:29:00,28.6,6.8,25.28,NNW,332,2.7,3.6,39,0.00,,---,0.00,VWS V14.01,2013-11-27 03:29:00,
2013-11-26 21:32:00,28.6,6.8,25.28,NNW,332,0.0,0.0,39,0.00,,---,0.00,VWS V14.01,2013-11-27 03:32:00,
2013-11-26 21:33:00,28.6,6.8,25.28,NNW,332,0.0,0.0,39,0.00,,---,0.00,VWS V14.01,2013-11-27 03:33:00,
2013-11-26 21:39:00,28.4,6.6,25.28,NNW,332,0.0,0.0,39,0.00,,---,0.00,VWS V14.01,2013-11-27 03:39:00,
2013-11-26 21:43:00,28.2,6.4,25.28,NNW,332,2.2,3.6,39,0.00,,---,0.00,VWS V14.01,2013-11-27 03:43:00,
2013-11-26 21:44:00,28.2,6.4,25.28,NNW,332,3.1,3.6,39,0.00,,---,0.00,VWS V14.01,2013-11-27 03:44:00,
2013-11-26 21:45:00,28.2,7.0,25.28,NNW,332,3.1,4.0,40,0.00,,---,0.00,VWS V14.01,2013-11-27 03:45:00,
2013-11-26 21:47:00,28.2,7.0,25.28,NNW,330,4.0,4.0,40,0.00,,---,0.00,VWS V14.01,2013-11-27 03:47:00,
2013-11-26 21:50:00,28.2,7.0,25.28,NNW,329,4.0,4.9,40,0.00,,---,0.00,VWS V14.01,2013-11-27 03:50:00,
2013-11-26 21:52:00,28.2,7.6,25.28,NNW,327,5.4,5.8,41,0.00,,---,0.00,VWS V14.01,2013-11-27 03:52:00,
2013-11-26 21:53:00,28.2,7.6,25.28,NW,326,5.8,5.8,41,0.00,,---,0.00,VWS V14.01,2013-11-27 03:53:00,
2013-11-26 21:55:00,28.2,7.6,25.28,NW,325,5.4,5.8,41,0.00,,---,0.00,VWS V14.01,2013-11-27 03:55:00,
2013-11-26 21:56:00,28.4,7.7,25.28,NW,320,5.4,6.3,41,0.00,,---,0.00,VWS V14.01,2013-11-27 03:56:00,
2013-11-26 21:57:00,28.4,7.7,25.28,NW,322,5.4,6.3,41,0.00,,---,0.00,VWS V14.01,2013-11-27 03:57:00,
2013-11-26 21:58:00,28.4,7.7,25.28,NW,325,5.4,5.8,41,0.00,,---,0.00,VWS V14.01,2013-11-27 03:58:00,
2013-11-26 22:01:00,28.4,7.7,25.28,NNW,327,3.1,4.0,41,0.00,,---,0.00,VWS V14.01,2013-11-27 04:01:00,
2013-11-26 22:04:00,28.2,7.6,25.28,NNW,332,4.0,4.0,41,0.00,,---,0.00,VWS V14.01,2013-11-27 04:04:00,
2013-11-26 22:07:00,27.9,7.2,25.28,NNW,333,0.0,0.0,41,0.00,,---,0.00,VWS V14.01,2013-11-27 04:07:00,
2013-11-26 22:08:00,27.9,7.2,25.28,NNW,333,0.0,0.0,41,0.00,,---,0.00,VWS V14.01,2013-11-27 04:08:00,
2013-11-26 22:10:00,27.7,7.1,25.28,NNW,333,0.0,0.0,41,0.00,,---,0.00,VWS V14.01,2013-11-27 04:10:00,
2013-11-26 22:11:00,27.5,6.9,25.28,NNW,333,0.0,0.0,41,0.00,,---,0.00,VWS V14.01,2013-11-27 04:11:00,
2013-11-26 22:13:00,27.3,6.7,25.28,NNW,333,0.0,0.0,41,0.00,,---,0.00,VWS V14.01,2013-11-27 04:13:00,
2013-11-26 22:14:00,27.1,6.6,25.28,NNW,333,0.0,0.0,41,0.00,,---,0.00,VWS V14.01,2013-11-27 04:14:00,
2013-11-26 22:16:00,27.0,6.4,25.28,NNW,333,0.0,0.0,41,0.00,,---,0.00,VWS V14.01,2013-11-27 04:16:00,
2013-11-26 22:18:00,26.8,6.2,25.28,NNW,333,0.0,0.0,41,0.00,,---,0.00,VWS V14.01,2013-11-27 04:18:00,
2013-11-26 22:19:00,26.6,6.1,25.28,NNW,333,0.0,0.0,41,0.00,,---,0.00,VWS V14.01,2013-11-27 04:19:00,
2013-11-26 22:20:00,26.4,5.9,25.28,NNW,333,0.0,0.0,41,0.00,,---,0.00,VWS V14.01,2013-11-27 04:20:00,
2013-11-26 22:23:00,26.2,5.8,25.28,NNW,333,0.0,0.0,41,0.00,,---,0.00,VWS V14.01,2013-11-27 04:23:00,
2013-11-26 22:25:00,25.9,5.4,25.28,NNW,333,0.0,0.0,41,0.00,,---,0.00,VWS V14.01,2013-11-27 04:25:00,
2013-11-26 22:28:00,25.7,5.8,25.28,NNW,333,0.0,0.0,42,0.00,,---,0.00,VWS V14.01,2013-11-27 04:28:00,
2013-11-26 22:29:00,25.5,5.6,25.28,NNW,333,0.0,0.0,42,0.00,,---,0.00,VWS V14.01,2013-11-27 04:29:00,
2013-11-26 22:30:00,25.5,5.6,25.28,NNW,333,0.0,0.0,42,0.00,,---,0.00,VWS V14.01,2013-11-27 04:30:00,
2013-11-26 22:31:00,25.5,5.6,25.28,NNW,333,0.0,0.0,42,0.00,,---,0.00,VWS V14.01,2013-11-27 04:31:00,
2013-11-26 22:33:00,25.5,5.6,25.28,NNW,333,0.0,0.0,42,0.00,,---,0.00,VWS V14.01,2013-11-27 04:33:00,
2013-11-26 22:34:00,25.3,5.5,25.28,NNW,333,0.0,0.0,42,0.00,,---,0.00,VWS V14.01,2013-11-27 04:34:00,
2013-11-26 22:35:00,25.3,5.5,25.28,NNW,333,0.0,0.0,42,0.00,,---,0.00,VWS V14.01,2013-11-27 04:35:00,
2013-11-26 22:37:00,25.3,5.5,25.28,NNW,333,0.0,0.0,42,0.00,,---,0.00,VWS V14.01,2013-11-27 04:37:00,
2013-11-26 22:39:00,25.2,5.3,25.28,NNW,333,0.0,0.0,42,0.00,,---,0.00,VWS V14.01,2013-11-27 04:39:00,
2013-11-26 22:40:00,25.2,5.3,25.28,NNW,333,0.0,0.0,42,0.00,,---,0.00,VWS V14.01,2013-11-27 04:40:00,
2013-11-26 22:43:00,25.0,5.1,25.28,NNW,333,0.0,0.0,42,0.00,,---,0.00,VWS V14.01,2013-11-27 04:43:00,
2013-11-26 22:44:00,25.0,5.1,25.28,NNW,333,0.0,0.0,42,0.00,,---,0.00,VWS V14.01,2013-11-27 04:44:00,
2013-11-26 22:45:00,25.0,5.1,25.28,NNW,333,0.0,0.0,42,0.00,,---,0.00,VWS V14.01,2013-11-27 04:45:00,
2013-11-26 22:46:00,25.0,5.1,25.28,NNW,333,0.0,0.0,42,0.00,,---,0.00,VWS V14.01,2013-11-27 04:46:00,
2013-11-26 22:48:00,25.0,5.1,25.28,NNW,333,0.0,0.0,42,0.00,,---,0.00,VWS V14.01,2013-11-27 04:48:00,
2013-11-26 22:50:00,25.0,5.1,25.28,NNW,332,0.0,0.0,42,0.00,,---,0.00,VWS V14.01,2013-11-27 04:50:00,
2013-11-26 22:51:00,25.2,5.3,25.28,NNW,332,4.0,4.0,42,0.00,,---,0.00,VWS V14.01,2013-11-27 04:51:00,
2013-11-26 22:52:00,25.2,5.3,25.28,NNW,332,3.6,4.0,42,0.00,,---,0.00,VWS V14.01,2013-11-27 04:52:00,
2013-11-26 22:55:00,25.3,5.5,25.28,NNW,332,0.0,0.0,42,0.00,,---,0.00,VWS V14.01,2013-11-27 04:55:00,
2013-11-26 22:57:00,25.3,5.5,25.28,NNW,332,0.0,0.0,42,0.00,,---,0.00,VWS V14.01,2013-11-27 04:57:00,
2013-11-26 22:59:00,25.3,6.0,25.28,NNW,332,3.6,3.6,43,0.00,,---,0.00,VWS V14.01,2013-11-27 04:59:00,
2013-11-26 23:01:00,25.3,6.0,25.28,NNW,332,2.7,3.1,43,0.00,,---,0.00,VWS V14.01,2013-11-27 05:01:00,
2013-11-26 23:02:00,25.3,6.0,25.28,NNW,332,2.2,3.1,43,0.00,,---,0.00,VWS V14.01,2013-11-27 05:02:00,
2013-11-26 23:03:00,25.3,6.0,25.28,NNW,332,0.0,2.2,43,0.00,,---,0.00,VWS V14.01,2013-11-27 05:03:00,
2013-11-26 23:04:00,25.3,6.0,25.28,NNW,332,0.0,0.0,43,0.00,,---,0.00,VWS V14.01,2013-11-27 05:04:00,
2013-11-26 23:07:00,25.3,6.0,25.28,NNW,332,0.0,0.0,43,0.00,,---,0.00,VWS V14.01,2013-11-27 05:07:00,
2013-11-26 23:08:00,25.3,6.0,25.28,NNW,332,0.0,0.0,43,0.00,,---,0.00,VWS V14.01,2013-11-27 05:08:00,
2013-11-26 23:11:00,25.3,6.0,25.28,NNW,332,0.0,0.0,43,0.00,,---,0.00,VWS V14.01,2013-11-27 05:11:00,
2013-11-26 23:12:00,25.3,6.0,25.28,NNW,332,0.0,0.0,43,0.00,,---,0.00,VWS V14.01,2013-11-27 05:12:00,
2013-11-26 23:13:00,25.3,6.0,25.28,NNW,332,0.0,0.0,43,0.00,,---,0.00,VWS V14.01,2013-11-27 05:13:00,
2013-11-26 23:17:00,25.2,5.8,25.28,NNW,332,0.0,0.0,43,0.00,,---,0.00,VWS V14.01,2013-11-27 05:17:00,
2013-11-26 23:19:00,25.2,5.8,25.28,NNW,332,0.0,0.0,43,0.00,,---,0.00,VWS V14.01,2013-11-27 05:19:00,
2013-11-26 23:20:00,25.2,5.8,25.28,NNW,332,0.0,0.0,43,0.00,,---,0.00,VWS V14.01,2013-11-27 05:20:00,
2013-11-26 23:24:00,25.0,5.7,25.28,NNW,332,0.0,0.0,43,0.00,,---,0.00,VWS V14.01,2013-11-27 05:24:00,
2013-11-26 23:25:00,25.0,5.7,25.28,NNW,331,3.6,4.0,43,0.00,,---,0.00,VWS V14.01,2013-11-27 05:25:00,
2013-11-26 23:27:00,25.0,6.2,25.28,NNW,329,3.6,4.0,44,0.00,,---,0.00,VWS V14.01,2013-11-27 05:27:00,
2013-11-26 23:31:00,24.8,6.0,25.28,NNW,329,0.0,3.1,44,0.00,,---,0.00,VWS V14.01,2013-11-27 05:31:00,
2013-11-26 23:32:00,24.8,6.0,25.28,NNW,330,0.0,0.0,44,0.00,,---,0.00,VWS V14.01,2013-11-27 05:32:00,
2013-11-26 23:34:00,24.8,6.0,25.28,NNW,332,0.0,0.0,44,0.00,,---,0.00,VWS V14.01,2013-11-27 05:34:00,
2013-11-26 23:35:00,24.8,6.0,25.28,NNW,334,0.0,0.0,44,0.00,,---,0.00,VWS V14.01,2013-11-27 05:35:00,
2013-11-26 23:36:00,24.8,6.5,25.28,NNW,334,0.0,0.0,45,0.00,,---,0.00,VWS V14.01,2013-11-27 05:36:00,
2013-11-26 23:37:00,24.8,6.5,25.28,NNW,334,0.0,0.0,45,0.00,,---,0.00,VWS V14.01,2013-11-27 05:37:00,
2013-11-26 23:39:00,25.0,6.2,25.28,NNW,334,0.0,0.0,44,0.00,,---,0.00,VWS V14.01,2013-11-27 05:39:00,
2013-11-26 23:42:00,24.8,6.5,25.28,NNW,334,0.0,0.0,45,0.00,,---,0.00,VWS V14.01,2013-11-27 05:42:00,
2013-11-26 23:44:00,24.8,6.5,25.28,NNW,334,2.7,3.1,45,0.00,,---,0.00,VWS V14.01,2013-11-27 05:44:00,
2013-11-26 23:45:00,24.8,6.5,25.28,NNW,334,2.2,2.7,45,0.00,,---,0.00,VWS V14.01,2013-11-27 05:45:00,
2013-11-26 23:47:00,24.8,6.5,25.28,NNW,346,3.1,4.0,45,0.00,,---,0.00,VWS V14.01,2013-11-27 05:47:00,
2013-11-26 23:48:00,24.6,6.3,25.28,NNW,339,3.6,4.0,45,0.00,,---,0.00,VWS V14.01,2013-11-27 05:48:00,
2013-11-26 23:50:00,24.6,6.8,25.28,NNW,339,3.1,3.1,46,0.00,,---,0.00,VWS V14.01,2013-11-27 05:50:00,
2013-11-26 23:51:00,24.8,7.0,25.28,NNW,337,3.6,5.4,46,0.00,,---,0.00,VWS V14.01,2013-11-27 05:51:00,
2013-11-26 23:54:00,24.8,7.0,25.28,NNW,328,4.0,4.5,46,0.00,,---,0.00,VWS V14.01,2013-11-27 05:54:00,
2013-11-26 23:56:00,25.0,7.1,25.28,NW,326,4.0,5.4,46,0.00,,---,0.00,VWS V14.01,2013-11-27 05:56:00,
2013-11-26 23:57:00,25.0,7.1,25.28,NNW,327,4.0,4.0,46,0.00,,---,0.00,VWS V14.01,2013-11-27 05:57:00,
2013-11-26 23:58:00,25.2,7.3,25.28,NNW,329,3.6,4.0,46,0.00,,---,0.00,VWS V14.01,2013-11-27 05:58:00,